Tel Aviv, Israel

10:50 AM IST on January 23, 2018 (GMT +0200)
Ben Gurion

Weather History for LLBG - March, 2013

Change the Weather History Date:

Saturday, March 16, 2013

  Actual Average Record
Temperature  
Mean Temperature 64 °F -  
Max Temperature 68 °F 70 °F 78 °F (2011)
Min Temperature 59 °F 54 °F 42 °F (1998)
Degree Days  
Heating Degree Days 2    
Growing Degree Days 14 (Base 50)    
Moisture  
Dew Point 51 °F    
Average Humidity 62    
Maximum Humidity 83    
Minimum Humidity 37    
Precipitation  
Precipitation 0.00 in - - ()
Sea Level Pressure  
Sea Level Pressure 29.93 in    
Wind  
Wind Speed 8 mph ()    
Max Wind Speed 14 mph    
Max Gust Speed -    
Visibility 5.6 miles    
Events Rain    
Averages and records for this station are not official NWS values.
T = Trace of Precipitation, MM = Missing Value Source: Averaged Metar Reports

Daily Weather History Graph

Daily Weather History Graph

Search for Another Location

Airport or City:

Trip Planner

Search our weather history database for the weather conditions in past years. The results will help you decide how hot, cold, wet, or windy it might be!

Date:

Astronomy

Mar. 16, 2013 Rise Set
Actual Time 5:49 AM IST 5:49 PM IST
Civil Twilight 5:25 AM IST 6:13 PM IST
Nautical Twilight 4:56 AM IST 6:41 PM IST
Astronomical Twilight 4:28 AM IST 7:10 PM IST
Moon 8:22 AM IST (3/16) 10:20 PM IST (3/16)
Length of Visible Light 12h 48m
Length of Day
11h 59m
Waxing Crescent, 21% of the Moon is Illuminated
Mar 16
Waxing Crescent
Mar 19
First Quarter
Mar 27
Full
Apr 3
Last Quarter
Apr 10
New

Hourly Weather History & Observations

Time (IST) Temp. Dew Point Humidity Pressure Visibility Wind Dir Wind Speed Gust Speed Precip Events Conditions
12:20 AM 66.2 °F 60.8 °F 83% 29.83 in 3.1 mi West 5.8 mph - N/A   Unknown
12:50 AM 66.2 °F 60.8 °F 83% 29.86 in 2.8 mi West 10.4 mph - N/A   Unknown
1:20 AM 66.2 °F 60.8 °F 83% 29.83 in 2.8 mi West 9.2 mph - N/A   Scattered Clouds
1:50 AM 66.2 °F 60.8 °F 83% 29.86 in 2.5 mi WNW 10.4 mph - N/A   Mostly Cloudy
2:00 AM 66 °F 60 °F 76% 29.86 in 2 mi WNW 9.2 mph - -  
2:20 AM 66.2 °F 59.0 °F 78% 29.86 in 3.1 mi WNW 10.4 mph - N/A   Mostly Cloudy
2:50 AM 64.4 °F 59.0 °F 83% 29.86 in 3.1 mi WNW 8.1 mph - N/A   Mostly Cloudy
3:20 AM 64.4 °F 57.2 °F 77% 29.86 in 4.3 mi West 9.2 mph - N/A   Mostly Cloudy
3:50 AM 62.6 °F 57.2 °F 82% 29.86 in 5.0 mi West 6.9 mph - N/A   Mostly Cloudy
4:20 AM 62.6 °F 55.4 °F 77% 29.86 in 5.6 mi West 4.6 mph - N/A   Scattered Clouds
4:50 AM 62.6 °F 55.4 °F 77% 29.89 in 5.6 mi WNW 5.8 mph - N/A   Scattered Clouds
5:20 AM 62.6 °F 55.4 °F 77% 29.89 in 6.2 mi WNW 6.9 mph - N/A   Mostly Cloudy
5:50 AM 62.6 °F 53.6 °F 72% 29.89 in 5.6 mi WNW 5.8 mph - N/A   Mostly Cloudy
6:50 AM 64.4 °F 53.6 °F 68% 29.92 in 5.6 mi WNW 8.1 mph - N/A   Partly Cloudy
7:20 AM 64.4 °F 53.6 °F 68% 29.92 in 5.6 mi WNW 5.8 mph - N/A   Partly Cloudy
7:50 AM 64.4 °F 53.6 °F 68% 29.92 in 5.6 mi NW 5.8 mph - N/A   Partly Cloudy
8:00 AM 65 °F 53 °F 57% 29.94 in 6 mi NW 5.8 mph - -  
8:20 AM 64.4 °F 53.6 °F 68% 29.92 in 6.2 mi WNW 6.9 mph - N/A   Mostly Cloudy
8:50 AM 66.2 °F 51.8 °F 60% 29.95 in 6.2 mi WNW 9.2 mph - N/A   Mostly Cloudy
9:20 AM 66.2 °F 51.8 °F 60% 29.95 in 6.2 mi WNW 12.7 mph - N/A   Mostly Cloudy
9:50 AM 68.0 °F 50.0 °F 52% 29.95 in 6.2 mi WNW 8.1 mph - N/A   Scattered Clouds
10:20 AM 66.2 °F 51.8 °F 60% 29.95 in 6.2 mi NW 9.2 mph - N/A   Scattered Clouds
10:50 AM 68.0 °F 50.0 °F 52% 29.95 in 6.2 mi WNW 10.4 mph - N/A   Scattered Clouds
11:20 AM 68.0 °F 44.6 °F 43% 29.95 in 6.2 mi West 8.1 mph - N/A   Scattered Clouds
11:50 AM 68.0 °F 48.2 °F 49% 29.95 in 6.2 mi West 9.2 mph - N/A   Scattered Clouds
12:20 PM 68.0 °F 48.2 °F 49% 29.95 in 6.2 mi WNW 11.5 mph - N/A   Mostly Cloudy
12:50 PM 68.0 °F 50.0 °F 52% 29.95 in 6.2 mi West 11.5 mph - N/A   Scattered Clouds
1:20 PM 68.0 °F 48.2 °F 49% 29.92 in 6.2 mi WNW 13.8 mph - N/A   Mostly Cloudy
1:50 PM 68.0 °F 46.4 °F 46% 29.92 in 6.2 mi WNW 11.5 mph - N/A   Scattered Clouds
2:00 PM 68 °F 48 °F 37% 29.94 in 6 mi West 12.7 mph - -  
2:20 PM 68.0 °F 46.4 °F 46% 29.92 in 6.2 mi WNW 13.8 mph - N/A   Scattered Clouds
2:50 PM 66.2 °F 46.4 °F 49% 29.92 in 6.2 mi WNW 13.8 mph - N/A   Scattered Clouds
3:20 PM 66.2 °F 46.4 °F 49% 29.92 in 6.2 mi WNW 13.8 mph - N/A   Scattered Clouds
3:50 PM 68.0 °F 44.6 °F 43% 29.92 in 6.2 mi West 11.5 mph - N/A   Scattered Clouds
4:20 PM 66.2 °F 44.6 °F 46% 29.95 in 6.2 mi WNW 12.7 mph - N/A   Scattered Clouds
4:50 PM 64.4 °F 46.4 °F 52% 29.95 in 6.2 mi WNW 11.5 mph - N/A   Scattered Clouds
5:20 PM 64.4 °F 48.2 °F 56% 29.95 in 6.2 mi West 10.4 mph - N/A   Partly Cloudy
5:50 PM 64.4 °F 46.4 °F 52% 29.95 in 6.2 mi WNW 8.1 mph - N/A   Partly Cloudy
6:20 PM 62.6 °F 46.4 °F 55% 29.95 in - WNW 8.1 mph - N/A   Clear
6:50 PM 62.6 °F 46.4 °F 55% 29.95 in - West 5.8 mph - N/A   Clear
7:20 PM 62.6 °F 46.4 °F 55% 29.95 in 6.2 mi West 4.6 mph - N/A   Scattered Clouds
7:50 PM 62.6 °F 46.4 °F 55% 29.95 in 6.2 mi WNW 4.6 mph - N/A   Scattered Clouds
8:00 PM 62 °F 47 °F 47% 29.97 in 6 mi West 4.6 mph - -  
8:20 PM 62.6 °F 46.4 °F 55% 29.95 in 6.2 mi West 4.6 mph - N/A   Scattered Clouds
8:50 PM 62.6 °F 46.4 °F 55% 29.98 in 6.2 mi WNW 5.8 mph - N/A   Scattered Clouds
9:20 PM 60.8 °F 46.4 °F 59% 29.98 in 6.2 mi Variable 3.5 mph - N/A   Scattered Clouds
9:50 PM 62.6 °F 46.4 °F 55% 29.98 in 6.2 mi Variable 3.5 mph - N/A   Mostly Cloudy
10:20 PM 62.6 °F 46.4 °F 55% 29.98 in 6.2 mi Variable 2.3 mph - N/A   Mostly Cloudy
10:50 PM 60.8 °F 51.8 °F 72% 29.98 in 6.2 mi West 8.1 mph - N/A   Mostly Cloudy
11:20 PM 59.0 °F 51.8 °F 77% 29.98 in 6.2 mi South 4.6 mph - N/A   Mostly Cloudy
11:50 PM 59.0 °F 53.6 °F 82% 29.98 in 6.2 mi South 5.8 mph - N/A Rain Light Rain